Regional Weather Roundup
Issued by NWS

Home | Current Version | Previous Version | Text Only | Print | Product List | Glossary On
Versions: 1 2 3 4 5 6 7 8 9 10 11 12 13 14 15 16 17 18 19 20 21 22 23 24 25 26 27 28 29 30 31 32 33 34 35 36 37 38 39 40 41 42 43 44 45 46 47 48 49 50
000
ASUS43 KOAX 242310
RWRNE

WEATHER ROUNDUP FOR NEBRASKA
NATIONAL WEATHER SERVICE OMAHA NE
600 PM CDT MON JUL 24 2017

NOTES: SATELLITE DATA IS BEING USED TO AUGMENT CLOUD COVER ABOVE
       12000 FEET.
       "FAIR" INDICATES FEW OR NO CLOUDS BELOW 12,000 FEET WITH NO
       SIGNIFICANT WEATHER AND/OR OBSTRUCTIONS TO VISIBILITY.


NEZ001>004-019>022-054>056-250000-
NEBRASKA PANHANDLE

CITY           SKY/WX    TMP DP  RH WIND       PRES   REMARKS
SCOTTSBLUFF    MOSUNNY  102  38  11 N6        29.88F HX  96
ALLIANCE       MOSUNNY  101  32   9 W12       29.86F HX  95
CHADRON        SUNNY    105  28   7 N8        29.80F HX  98
GORDON         FAIR      99  46  16 W8        29.83F HX  95
KIMBALL        PTSUNNY   93  43  17 CALM      29.98S
SIDNEY         LGT RAIN  88  60  38 E13       29.95S
$$

NEZ057>060-069>072-079>082-250000-
SOUTHWEST NEBRASKA

CITY           SKY/WX    TMP DP  RH WIND       PRES   REMARKS
NORTH PLATTE   SUNNY     97  52  21 S17       29.87F HX  94
IMPERIAL       SUNNY     97  54  23 S18G25    29.90F HX  95
LEXINGTON      SUNNY     91  67  44 SE14G20   29.91F HX  94
MCCOOK         SUNNY     99  52  20 S21       29.90F HX  96
OGALLALA       SUNNY     95  53  24 S9G18     29.89S HX  92
$$

NEZ005>010-023>029-035>040-094-250000-
NORTH CENTRAL NEBRASKA

CITY           SKY/WX    TMP DP  RH WIND       PRES   REMARKS
VALENTINE      SUNNY    105  45  13 S24G31    29.76F HX 101
AINSWORTH      SUNNY    100  54  21 S24G31    29.82F HX  98
BROKEN BOW     SUNNY     94  66  39 S18G29    29.91S HX  97
O`NEILL        SUNNY     91  69  47 S20       29.88S HX  95
ORD            SUNNY     92  65  40 S18G24    29.89S HX  94
THEDFORD       SUNNY    100  49  18 S22G32    29.86F HX  96
$$

NEZ041-046>049-061>064-073>077-083>087-250000-
SOUTH CENTRAL NEBRASKA

CITY           SKY/WX    TMP DP  RH WIND       PRES   REMARKS
GRAND ISLAND   FAIR      89  72  56 SE12      29.94S HX  96
AURORA         FAIR      89  69  53 S12       29.94S HX  93
HASTINGS       FAIR      90  70  51 S14       29.94F HX  95
HEBRON         FAIR      91  66  42 S9        29.94S HX  94
HOLDREGE       FAIR      90  66  45 SE9       29.93S HX  92
KEARNEY        FAIR      91  69  48 S16       29.93F HX  96
YORK           FAIR      90  70  51 S10       29.94F HX  95
$$

NEZ011>018-030>034-042>045-250000-
NORTHEAST NEBRASKA

CITY           SKY/WX    TMP DP  RH WIND       PRES   REMARKS
NORFOLK        FAIR      87  66  49 SE16      29.93S
ALBION         FAIR      90  71  54 S15       29.93R HX  96
BLAIR          FAIR      85  66  52 SE8       29.96F
COLUMBUS       FAIR      86  69  56 SE13      29.94S HX  90
FREMONT        FAIR      85  64  49 SE12G17   29.96S
TEKAMAH        FAIR      84  65  52 SE12      29.95S
WAYNE          FAIR      85  66  52 S17       29.94S
$$

NEZ050>053-065>068-078-088>093-250000-
SOUTHEAST NEBRASKA

CITY           SKY/WX    TMP DP  RH WIND       PRES   REMARKS
LINCOLN        FAIR      88  68  51 SE12      29.95S HX  91
OMAHA EPPLEY   FAIR      86  65  49 SE10      29.96S
BEATRICE       FAIR      91  69  48 SE9       29.94F HX  96
FALLS CITY     FAIR      85  65  51 SE8       29.96F
NEBRASKA CITY  FAIR      83  70  63 SE7       29.97F
PLATTSMOUTH    FAIR      83  67  57 SE9       29.98R
$$

NEZ044-045-051>053-067-250000-
OMAHA AREA

CITY           SKY/WX    TMP DP  RH WIND       PRES   REMARKS
OMAHA EPPLEY   FAIR      86  65  49 SE10      29.96S
BLAIR          FAIR      85  66  52 SE8       29.96F
FREMONT        FAIR      85  64  49 SE12G17   29.96S
MILLARD        FAIR      87  69  55 S9G16     29.96S HX  91
OFFUTT AFB     FAIR      85  66  51 SE12      29.96S
PLATTSMOUTH    FAIR      83  67  57 SE9       29.98R
WAHOO          FAIR      85  66  52 SE10      29.95F
$$



USA.gov is the U.S. government's official web portal to all federal, state and local government web resources and services.